Location: Del Amo
(33.8464°N, 118.2104°W)
Time: 21:47:09
(UTC+00:00)

Courier 1B Rocket - Pass Details

Date: 15 September 2024
Orbit: 920 x 1201 km, 28.3° (Epoch: 13 October)

Event Time Altitude Azimuth Distance (km) Brightness Sun altitude
Rises 03:52:28 0° 270° (W) 3,890 9.3 -23.6°
Reaches altitude 10° 03:55:20 10° 263° (W) 2,973 8.3 -24.2°
Maximum altitude 04:02:07 40° 196° (SSW) 1,636 6.0 -25.5°
Enters shadow 04:03:57 35° 166° (SSE) 1,785 6.0 -25.9°
